San Luis Potosi, Mexico

9:38 PM CDT on June 22, 2017 (GMT -0500)
Ponciano Arriaga International

Weather History for MMSP - April, 2013

Change the Weather History Date:

Friday, April 5, 2013

  Actual Average Record
Temperature  
Mean Temperature 67 °F -  
Max Temperature 86 °F 80 °F 93 °F (1998)
Min Temperature 48 °F 50 °F 43 °F (2017)
Cooling Degree Days 2    
Growing Degree Days 17 (Base 50)    
Moisture  
Dew Point 45 °F    
Average Humidity 53    
Maximum Humidity 82    
Minimum Humidity 24    
Precipitation  
Precipitation 0.00 in - - ()
Sea Level Pressure  
Sea Level Pressure 30.12 in    
Wind  
Wind Speed 8 mph ()    
Max Wind Speed 16 mph    
Max Gust Speed -    
Visibility 11.6 miles    
Events      
Averages and records for this station are not official NWS values.
T = Trace of Precipitation, MM = Missing Value Source: Averaged Metar Reports

Daily Weather History Graph

Daily Weather History Graph

Search for Another Location

Airport or City:

Trip Planner

Search our weather history database for the weather conditions in past years. The results will help you decide how hot, cold, wet, or windy it might be!

Date:

Astronomy

Apr. 05, 2013 Rise Set
Actual Time 6:32 AM CST 7:00 PM CST
Civil Twilight 6:09 AM CST 7:23 PM CST
Nautical Twilight 5:43 AM CST 7:49 PM CST
Astronomical Twilight 5:16 AM CST 8:16 PM CST
Moon 3:08 AM CST (4/5) 2:56 PM CST (4/5)
Length of Visible Light 13h 13m
Length of Day
12h 27m
Waning Crescent, 23% of the Moon is Illuminated
Apr 5
Waning Crescent
Apr 10
New
Apr 18
First Quarter
Apr 25
Full
May 2
Last Quarter

Hourly Weather History & Observations

Time (CST) Temp. Dew Point Humidity Pressure Visibility Wind Dir Wind Speed Gust Speed Precip Events Conditions
12:42 AM 53.6 °F 48.2 °F 82% 30.33 in 12.0 mi ESE 11.5 mph - N/A   Mostly Cloudy
1:48 AM 53.6 °F 48.2 °F 82% 30.33 in 12.0 mi ESE 11.5 mph - N/A   Mostly Cloudy
2:43 AM 53.6 °F 48.2 °F 82% 29.93 in 12.0 mi ESE 11.5 mph - N/A   Mostly Cloudy
3:46 AM 53.6 °F 48.2 °F 82% 30.32 in 12.0 mi ESE 10.4 mph - N/A   Mostly Cloudy
4:50 AM 53.6 °F 48.2 °F 82% 30.32 in 12.0 mi ESE 11.5 mph - N/A   Mostly Cloudy
5:42 AM 53.6 °F 48.2 °F 82% 29.98 in 12.0 mi SE 6.9 mph - N/A   Mostly Cloudy
5:50 AM 55 °F 45 °F 59% 30.11 in 5 mi East 4.5 mph - -   Scattered Clouds
6:40 AM 53.6 °F 48.2 °F 82% 30.35 in 12.0 mi ESE 6.9 mph - N/A   Scattered Clouds
7:43 AM 55.4 °F 46.4 °F 72% 30.36 in 12.0 mi East 5.8 mph - N/A   Scattered Clouds
8:47 AM 59.0 °F 46.4 °F 63% 30.06 in 12.0 mi ESE 13.8 mph - N/A   Mostly Cloudy
8:50 AM 59 °F 51 °F 68% 30.18 in 8 mi South 4.5 mph - -   Haze
9:44 AM 64.4 °F 46.4 °F 52% 30.39 in 15.0 mi East 12.7 mph - N/A   Scattered Clouds
11:44 AM 66.2 °F 44.6 °F 46% 30.03 in 15.0 mi East 8.1 mph - N/A   Scattered Clouds
11:45 AM 68 °F 54 °F 51% 30.16 in 7 mi SSE 6.7 mph - -   Haze
12:43 PM 71.6 °F 41.0 °F 33% 30.32 in 15.0 mi Calm Calm - N/A   Partly Cloudy
1:44 PM 73.4 °F 39.2 °F 29% 30.27 in 15.0 mi East 9.2 mph - N/A   Clear
2:43 PM 75.2 °F 41.0 °F 29% 29.86 in 15.0 mi East 6.9 mph - N/A   Clear
2:50 PM 77 °F 47 °F 24% 29.94 in 12 mi South 4.5 mph - -  
3:40 PM 77.0 °F 39.2 °F 26% 30.19 in 15.0 mi East 9.2 mph - N/A   Scattered Clouds
4:43 PM 77.0 °F 39.2 °F 26% 30.16 in 15.0 mi East 16.1 mph - N/A   Scattered Clouds
5:45 PM 75 °F 46 °F 25% 29.72 in 12 mi East 4.5 mph - -  
5:54 PM 75.2 °F 41.0 °F 29% 29.79 in 15.0 mi East 13.8 mph - N/A   Clear
6:43 PM 68.0 °F 37.4 °F 33% 30.18 in 15.0 mi ESE 16.1 mph - N/A   Partly Cloudy
7:50 PM 66.2 °F 35.6 °F 32% 30.21 in 12.0 mi SE 5.8 mph - N/A   Scattered Clouds
8:49 PM 64.4 °F 39.2 °F 40% 29.87 in 10.0 mi SE 5.8 mph - N/A   Scattered Clouds
8:50 PM 62 °F 54 °F 69% 29.86 in 5 mi East 4.5 mph - -  
9:44 PM 60.8 °F 41.0 °F 48% 30.25 in 10.0 mi South 6.9 mph - N/A   Scattered Clouds
10:44 PM 59.0 °F 42.8 °F 55% 30.27 in 10.0 mi SSE 8.1 mph - N/A   Scattered Clouds
11:50 PM 56 °F 44 °F 55% 29.91 in 5 mi North 4.5 mph - -  
11:51 PM 57.2 °F 41.0 °F 55% 29.93 in 10.0 mi SE 4.6 mph - N/A   Partly Cloudy